Regional Weather Roundup
Issued by NWS

Home | Current Version | Previous Version | Text Only | Print | Product List | Glossary On
Versions: 1 2 3 4 5 6 7 8 9 10 11 12 13 14 15 16 17 18 19 20 21 22 23 24 25 26 27 28 29 30 31 32 33 34 35 36 37 38 39 40 41 42 43 44 45 46 47 48 49 50
000
ASUS43 KIND 292209
RWRIN

WEATHER ROUNDUP FOR INDIANA
NATIONAL WEATHER SERVICE INDIANAPOLIS IN
600 PM EDT FRI MAY 29 2015

NOTE: "FAIR" INDICATES FEW OR NO CLOUDS BELOW 12,000 FEET WITH NO
SIGNIFICANT WEATHER AND/OR OBSTRUCTIONS TO VISIBILITY.

* - STATION DOES NOT REPORT WEATHER SUCH AS PRECIPITATION OR FOG.

+ - STATION NOT QUALITY CONTROLLED BY THE NATIONAL WEATHER SERVICE.
    USE DATA WITH CAUTION...ESPECIALLY DEWPOINT AND RELATIVE
    HUMIDITY OBSERVATIONS.

INZ001>003-010>013-019-020-292300-
NORTHWEST INDIANA

CITY           SKY/WX    TMP DP  RH WIND       PRES   REMARKS
GARY /AIRPORT/ CLOUDY    82  64  54 S9G21     29.92F
KNOX *+        MOSUNNY   86  59  39 S18G26    29.94F
LA PORTE +     PTSUNNY   86  60  40 S14G28    29.95F
MICHIGAN CITY+ PTSUNNY   81  59  47 S10G17    29.94F
MONTICELLO +   PTSUNNY   82  65  55 S12G20    29.96F
RENSSELAER +   MOSUNNY   86  61  42 S14G31    29.95F
VALPARAISO     MOSUNNY   83  60  45 SW20G28   29.94F

$$

LMZ046-743>745-292300-
SOUTHERN LAKE MICHIGAN

STATION/POSITION TIME  TEMP    WIND        PRES    WAVE
                       AIR SEA DIR/SP/G            HT
                 (UTC) (F)     (DEG/KT/KT) (MB)    (FT)
BURNS HARBOR     2200   82     190/ 19/ 25 1013.5F
MICHIGAN CITY    2200   81     170/ 12/ 17   N/A
5NW MICH CITY    2200   71 57  200/  8/ 10   N/A     1

$$

INZ004-005-014>016-021>024-292300-
NORTH CENTRAL INDIANA

CITY           SKY/WX    TMP DP  RH WIND       PRES   REMARKS
GOSHEN         PTSUNNY   83  63  50 S16       29.97F
LOGANSPORT +   PTSUNNY   82  55  39 SW17      29.98F
PERU/GRISSOM   MOSUNNY   85  65  51 SW14      29.97F
ROCHESTER +    MOSUNNY   86  64  48 SW7       29.97F
SOUTH BEND     MOSUNNY   84  62  47 SW17G24   29.95F
WARSAW +       MOSUNNY   81  64  57 S7        29.99S

$$

INZ006>009-017-018-025>027-292300-
NORTHEAST INDIANA

CITY           SKY/WX    TMP DP  RH WIND       PRES   REMARKS
ANGOLA *+      MOSUNNY   86  81  84 SW14      29.99F HX 102
AUBURN +       PTSUNNY   82  63  51 SW10      30.00F
FORT WAYNE     PTSUNNY   84  65  52 SW9       30.01F
HUNTINGTON +   MOSUNNY   82  67  59 SW7       29.99F

$$

INZ028-029-035-036-043>045-051>053-292300-
WEST CENTRAL INDIANA

CITY           SKY/WX    TMP DP  RH WIND       PRES   REMARKS
CRAWFORDSVL +  MOSUNNY   81  57  43 S13       29.99F
GREENCASTLE +  MOSUNNY   79  61  53 S9        30.02F
LAFAYETTE      MOSUNNY   81  64  56 S9        29.97F
TERRE HAUTE    MOSUNNY   84  65  52 S16       29.99F

$$

INZ030>032-037>040-046>048-054>057-064-065-292300-
CENTRAL INDIANA

CITY           SKY/WX    TMP DP  RH WIND       PRES   REMARKS
CP ATTERBURY + MOSUNNY   81  64  57 S15       30.05S
COLUMBUS       MOSUNNY   82  63  51 S12G17    30.05S
FISHERS *+     MOSUNNY   81  66  61 S14       30.02S
FRANKFORT +    MOSUNNY   85  64  47 S13       30.01F
GREENWOOD *+   MOSUNNY   82  61  47 S14       30.04S
INDIANAPOLIS   MOSUNNY   83  63  50 SW15      30.01F
-EAGLE CREEK   MOSUNNY   81  63  54 SW10      30.01F
KOKOMO *+      MOSUNNY   84  64  51 SW18      29.99F
MARION +       MOSUNNY   85  60  42 SW15G22   30.01S
MT COMFORT *+  SUNNY     82  50  32 S15G21    30.04R
SHELBYVILLE    PTSUNNY   85  64  49 S16       30.03F
ZIONSVILLE +   MOSUNNY   85  60  42 S15       30.02F

$$

INZ033-034-041-042-049-050-058-059-292300-
EAST CENTRAL INDIANA

CITY           SKY/WX    TMP DP  RH WIND       PRES   REMARKS
MUNCIE         MOSUNNY   84  64  50 SW9G22    30.02F

$$

INZ060-061-067>069-081>083-085>088-292300-
SOUTHWEST INDIANA

CITY           SKY/WX    TMP DP  RH WIND       PRES   REMARKS
EVANSVILLE     PTSUNNY   82  66  58 S6        30.02F
HUNTINGBURG *+ CLOUDY    81  68  65 S9        30.05S
WASHINGTON +   MOSUNNY   83  63  51 S13G21    30.02S

$$

INZ062-063-066-070>080-084-089>092-292300-
SOUTH CENTRAL AND SOUTHEAST INDIANA

CITY           SKY/WX    TMP DP  RH WIND       PRES   REMARKS
BLOOMINGTON    PTSUNNY   81  66  60 S9        30.04S
MADISON *+     MOSUNNY   81  59  47 S12       30.08F
NORTH VERNON + MOSUNNY   81  64  57 S12       30.07S
SEYMOUR +      CLOUDY    82  64  54 S9        30.05S

$$



USA.gov is the U.S. government's official web portal to all federal, state and local government web resources and services.